Date String (YYYY-MM-DD hh:mm:ss) UTC,Instrument flags,absolute air pressure of the measurement (hPa),sample flow rate (lpm),inlet stack bypass flow (lpm),air temperature of the measurement (°C),ambient temperature measured by the external sensor (°C),aerosol sample conditioner tube jacket temperature (°C),OPC LED temperature (°C),internal box temperature (°C),relative humidity of the measurement (%),span deviation,mass concentration of particles derived from Lorenz-Mie calculation of OPC scattering (μg/m³),mass concentration of particles derived from Lorenz-Mie calculation of OPC scattering (μg/m³),mass concentration of particles derived from Lorenz-Mie calculation of OPC scattering (μg/m³)
DateTimeUTC,F1_M11,P_M11,Q1_M11,Q2_M11,T1_M11,T2_M11,T3_M11,T4_M11,T5_M11,U1_M11,ZSPAN_M11,X0_M11,X2_M11,X1_M11
2023-12-13 17:00:00,SystemResetWarning,0839.4,5.01,000.00,018.7,017.8,000.0,027.2,020.0,22.7,0002.0,0016.48,0012.57,0011.81
2023-12-13 17:01:00,SystemResetWarning,0839.4,4.99,000.00,018.7,017.7,000.0,027.2,020.0,22.7,0002.1,0016.55,0012.59,0011.82
2023-12-13 17:02:00,SystemResetWarning,0839.5,5.00,000.00,018.7,017.8,000.0,027.2,020.0,22.7,0002.0,0016.59,0012.56,0011.79
2023-12-13 17:03:00,SystemResetWarning,0839.4,5.00,000.00,018.7,017.8,000.0,027.2,020.0,22.7,0001.9,0016.40,0012.55,0011.74
2023-12-13 17:04:00,SystemResetWarning,0839.4,4.99,000.00,018.7,017.7,000.0,027.2,020.0,22.7,0001.8,0016.81,0012.52,0011.66
2023-12-13 17:05:00,SystemResetWarning,0839.4,4.99,000.00,018.7,017.7,000.0,027.2,020.0,22.7,0001.6,0017.22,0012.48,0011.61
2023-12-13 17:06:00,SystemResetWarning,0839.4,5.01,000.00,018.7,017.7,000.0,027.1,020.0,22.7,0001.8,0017.23,0012.46,0011.57
2023-12-13 17:07:00,SystemResetWarning,0839.4,5.01,000.00,018.7,017.7,000.0,027.1,020.0,22.7,0001.6,0017.01,0012.38,0011.48
2023-12-13 17:08:00,SystemResetWarning,0839.4,5.00,000.00,018.7,017.7,000.0,027.1,020.0,22.7,0001.4,0016.75,0012.34,0011.44
2023-12-13 17:09:00,SystemResetWarning,0839.4,5.00,000.00,018.7,017.7,000.0,027.1,020.0,22.8,0001.1,0016.40,0012.28,0011.39
2023-12-13 17:10:00,SystemResetWarning,0839.3,5.00,000.00,018.7,017.7,000.0,027.1,020.0,22.8,0001.2,0016.32,0012.26,0011.39
2023-12-13 17:11:00,SystemResetWarning,0839.3,5.00,000.00,018.7,017.7,000.0,027.1,020.0,22.8,0001.1,0016.42,0012.31,0011.42
2023-12-13 17:12:00,SystemResetWarning,0839.2,4.99,000.00,018.7,017.7,000.0,027.1,020.0,22.9,0001.2,0017.03,0012.36,0011.46
2023-12-13 17:13:00,SystemResetWarning,0839.2,4.99,000.00,018.7,017.7,000.0,027.1,020.0,22.9,0001.2,0017.18,0012.40,0011.49
2023-12-13 17:14:00,SystemResetWarning,0839.3,5.00,000.00,018.7,017.7,000.0,027.1,020.0,23.0,0001.3,0017.51,0012.43,0011.52
2023-12-13 17:15:00,SystemResetWarning,0839.3,4.99,000.00,018.7,017.7,000.0,027.1,020.0,23.0,0001.2,0017.01,0012.37,0011.53
2023-12-13 17:16:00,SystemResetWarning,0839.3,5.00,000.00,018.8,017.7,000.0,027.1,020.0,22.9,0001.2,0016.46,0012.33,0011.53
2023-12-13 17:17:00,SystemResetWarning,0839.2,5.01,000.00,018.8,017.7,000.0,027.1,020.0,22.9,0000.9,0016.28,0012.29,0011.55
2023-12-13 17:18:00,SystemResetWarning,0839.2,5.01,000.00,018.7,017.7,000.0,027.1,020.0,22.9,0000.9,0016.31,0012.30,0011.58
2023-12-13 17:19:00,SystemResetWarning,0839.3,4.99,000.00,018.7,017.7,000.0,027.1,020.0,22.8,0000.9,0017.17,0012.27,0011.57
2023-12-13 17:20:00,SystemResetWarning,0839.3,5.00,000.00,018.7,017.7,000.0,027.1,020.0,22.7,0001.2,0017.38,0012.30,0011.57
2023-12-13 17:21:00,SystemResetWarning,0839.4,4.99,000.00,018.7,017.7,000.0,027.1,020.0,22.8,0001.2,0017.54,0012.34,0011.59
2023-12-13 17:22:00,SystemResetWarning,0839.4,5.00,000.00,018.7,017.7,000.0,027.1,020.0,22.7,0001.4,0017.54,0012.33,0011.60
2023-12-13 17:23:00,SystemResetWarning,0839.3,5.01,000.00,018.7,017.8,000.0,027.1,020.0,22.6,0001.4,0017.06,0012.31,0011.58
2023-12-13 17:24:00,SystemResetWarning,0839.4,5.01,000.00,018.7,017.7,000.0,027.1,020.0,22.6,0001.5,0016.92,0012.35,0011.64
2023-12-13 17:25:00,SystemResetWarning,0839.3,5.00,000.00,018.7,017.7,000.0,027.1,020.0,22.7,0001.5,0017.01,0012.36,0011.68
2023-12-13 17:26:00,SystemResetWarning,0839.3,4.99,000.00,018.7,017.7,000.0,027.1,020.0,22.9,0001.4,0017.20,0012.45,0011.77
2023-12-13 17:27:00,SystemResetWarning,0839.3,5.00,000.00,018.7,017.7,000.0,027.1,020.0,22.7,0001.2,0017.55,0012.53,0011.85
2023-12-13 17:28:00,SystemResetWarning,0839.3,5.00,000.00,018.7,017.7,000.0,027.1,020.0,22.6,0001.4,0017.79,0012.60,0011.90
2023-12-13 17:29:00,SystemResetWarning,0839.4,4.99,000.00,018.7,017.7,000.0,027.1,020.0,22.5,0001.5,0017.80,0012.60,0011.91
2023-12-13 17:30:00,SystemResetWarning,0839.3,4.99,000.00,018.7,017.7,000.0,027.1,020.0,22.4,0001.5,0016.94,0012.62,0011.92
2023-12-13 17:31:00,SystemResetWarning,0839.4,5.00,000.00,018.7,017.7,000.0,027.1,020.0,22.5,0001.5,0016.74,0012.56,0011.90
2023-12-13 17:32:00,SystemResetWarning,0839.3,5.00,000.00,018.7,017.7,000.0,027.1,020.0,22.6,0001.1,0016.58,0012.51,0011.87
2023-12-13 17:33:00,SystemResetWarning,0839.3,5.00,000.00,018.7,017.7,000.0,027.1,020.0,22.6,0001.0,0016.48,0012.48,0011.86
2023-12-13 17:34:00,SystemResetWarning,0839.3,5.00,000.00,018.7,017.7,000.0,027.1,020.0,22.7,0000.9,0016.41,0012.49,0011.89
2023-12-13 17:35:00,SystemResetWarning,0839.2,5.01,000.00,018.7,017.7,000.0,027.1,020.0,22.7,0001.0,0016.68,0012.43,0011.85
2023-12-13 17:36:00,SystemResetWarning,0839.2,5.00,000.00,018.7,017.7,000.0,027.1,020.0,22.7,0001.1,0016.25,0012.40,0011.81
2023-12-13 17:37:00,SystemResetWarning,0839.2,5.00,000.00,018.7,017.7,000.0,027.1,020.0,22.7,0001.2,0015.95,0012.31,0011.72
2023-12-13 17:38:00,SystemResetWarning,0839.2,5.00,000.00,018.7,017.7,000.0,027.1,020.0,22.7,0001.3,0015.58,0012.19,0011.61
2023-12-13 17:39:00,SystemResetWarning,0839.3,5.00,000.00,018.7,017.7,000.0,027.1,020.0,22.6,0001.0,0015.24,0012.08,0011.53
2023-12-13 17:40:00,SystemResetWarning,0839.2,5.00,000.00,018.7,017.7,000.0,027.1,020.0,22.7,0000.7,0015.33,0012.04,0011.48
2023-12-13 17:41:00,SystemResetWarning,0839.2,4.99,000.00,018.7,017.7,000.0,027.1,020.0,22.7,0000.8,0015.30,0012.00,0011.43
2023-12-13 17:42:00,SystemResetWarning,0839.2,5.00,000.00,018.7,017.7,000.0,027.1,020.0,22.7,0000.7,0015.37,0011.98,0011.39
2023-12-13 17:43:00,SystemResetWarning,0839.2,5.01,000.00,018.7,017.7,000.0,027.1,020.0,22.8,0000.8,0015.47,0011.93,0011.36
2023-12-13 17:44:00,SystemResetWarning,0839.1,5.00,000.00,018.7,017.7,000.0,027.1,020.0,22.9,0000.9,0015.52,0011.92,0011.33
2023-12-13 17:45:00,SystemResetWarning,0839.2,5.00,000.00,018.7,017.7,000.0,027.1,020.0,23.0,0001.0,0015.54,0011.88,0011.27
2023-12-13 17:46:00,SystemResetWarning,0839.2,5.00,000.00,018.7,017.7,000.0,027.1,020.0,22.9,0000.7,0015.02,0011.79,0011.18
2023-12-13 17:47:00,SystemResetWarning,0839.1,4.99,000.00,018.7,017.7,000.0,027.1,020.0,22.8,0000.6,0015.03,0011.77,0011.13
2023-12-13 17:48:00,SystemResetWarning,0839.1,5.00,000.00,018.7,017.7,000.0,027.1,020.0,22.9,0000.5,0015.13,0011.77,0011.11
2023-12-13 17:49:00,SystemResetWarning,0839.1,5.00,000.00,018.7,017.7,000.0,027.1,020.0,22.8,0000.5,0015.16,0011.77,0011.11
2023-12-13 17:50:00,SystemResetWarning,0839.1,5.01,000.00,018.7,017.7,000.0,027.1,020.0,22.7,0000.9,0015.24,0011.81,0011.09
2023-12-13 17:51:00,SystemResetWarning,0839.2,5.01,000.00,018.7,017.7,000.0,027.1,020.0,22.9,0001.0,0015.08,0011.79,0011.08
2023-12-13 17:52:00,SystemResetWarning,0839.1,5.00,000.00,018.7,017.7,000.0,027.1,020.0,23.1,0000.9,0015.60,0011.78,0011.09
2023-12-13 17:53:00,SystemResetWarning,0839.2,5.00,000.00,018.7,017.7,000.0,027.1,020.0,23.2,0000.7,0015.57,0011.79,0011.12
2023-12-13 17:54:00,SystemResetWarning,0839.2,5.00,000.00,018.7,017.7,000.0,027.1,020.0,23.2,0000.9,0015.50,0011.81,0011.14
2023-12-13 17:55:00,SystemResetWarning,0839.2,4.99,000.00,018.7,017.7,000.0,027.1,020.0,23.2,0000.7,0015.55,0011.81,0011.13
2023-12-13 17:56:00,SystemResetWarning,0839.2,4.99,000.00,018.7,017.7,000.0,027.1,020.0,23.0,0000.6,0015.94,0011.88,0011.17
2023-12-13 17:57:00,SystemResetWarning,0839.2,5.00,000.00,018.7,017.7,000.0,027.1,020.0,22.9,0000.5,0016.44,0011.99,0011.24
2023-12-13 17:58:00,SystemResetWarning,0839.2,5.01,000.00,018.7,017.7,000.0,027.1,020.0,22.8,0000.5,0016.97,0012.03,0011.28
2023-12-13 17:59:00,SystemResetWarning,0839.2,5.00,000.00,018.7,017.7,000.0,027.1,020.0,22.9,0000.5,0017.51,0012.07,0011.33
